• Join FlightAware (Why Join?)
  • Login
  • US Flag 
02:31AM EDT


 

Airport Tracker/Info


-or-


 

Live Flight TrackerFlight Track Log ✈ KAP2826 ✈ 06-May-2013 ✈ KACK - KHYA

Flight Track Log - Related Links

Times and Time Zones

All times are in EDT time to prevent confusion due to time zone crossing. See the KAP2826 flight status page for this flight to view local times or setup timezone preferences in your user account.

Time Position Orientation Groundspeed Altitude Reporting Facility
EDT Latitude Longitude Course Direction KTS MPH feet Rate Location/Type
04:16PM 41.3736 -70.1201 339° North  Level FlightAware Approximate
04:17PM 41.3946 -70.1306 339° North  Level FlightAware Approximate
04:18PM 41.4156 -70.1411 339° North  Level FlightAware Approximate
04:19PM 41.4366 -70.1516 339° North  Level FlightAware Approximate
04:20PM 41.4576 -70.1621 339° North  Level FlightAware Approximate
04:21PM 41.4785 -70.1726 339° North  Level FlightAware Approximate
04:22PM 41.4995 -70.1831 339° North  Level FlightAware Approximate
04:23PM 41.5205 -70.1936 339° North  Level FlightAware Approximate
04:24PM 41.5411 -70.2052 333° Northwest  Level FlightAware Approximate
04:25PM 41.5612 -70.2186 333° Northwest  Level FlightAware Approximate
04:26PM 41.5812 -70.2319 333° Northwest  Level FlightAware Approximate
04:27PM 41.6026 -70.2410 343° North  Level FlightAware Approximate
04:28PM 41.6241 -70.2496 343° North  Level FlightAware Approximate
04:29PM 41.6455 -70.2582 343° North  Level FlightAware Approximate
04:30PM 41.6667 -70.2667 343° North  Level FlightAware Approximate
04:31PM 41.6693 -70.2804 343° North  Level Estimated
04:32PM 41.6693 -70.2804 343° North  Level Estimated
04:33PM 41.6693 -70.2804 343° North  Level Estimated
04:34PM 41.6693 -70.2804 343° North  Level Estimated
04:35PM 41.6693 -70.2804 343° North  Level Estimated
04:36PM 41.6693 -70.2804 343° North  Level Estimated